Location: Gollag?dem
(17.0207°N, 80.7261°E)
Time: 11:48:06
(UTC+00:00)

Lacrosse 4 Rocket - Pass Details

Date: 03 August 2024
Orbit: 521 x 593 km, 68.0° (Epoch: 12 September)

Event Time Altitude Azimuth Distance (km) Brightness Sun altitude
Rises 14:30:07 0° 232° (SW) 2,646 5.2 -18.9°
Reaches altitude 10° 14:32:52 10° 252° (WSW) 1,768 4.5 -19.5°
Maximum altitude 14:35:30 17° 294° (WNW) 1,386 4.4 -20.0°
Drops below altitude 10° 14:38:10 10° 337° (NNW) 1,795 4.6 -20.6°
Sets 14:41:00 0° 357° (N) 2,704 5.3 -21.2°
